Nice, France

1:01 PM CEST on March 26, 2017 (GMT +0200)
Nice-Cote d'Azur

Weather History for LFMN - January, 2013

Change the Weather History Date:

Wednesday, January 23, 2013

  Actual Average Record
Temperature  
Mean Temperature 46 °F -  
Max Temperature 53 °F 55 °F 62 °F (1997)
Min Temperature 40 °F 40 °F 37 °F (2000)
Degree Days  
Heating Degree Days 18    
Moisture  
Dew Point 34 °F    
Average Humidity 64    
Maximum Humidity 82    
Minimum Humidity 40    
Precipitation  
Precipitation 0.43 in 0.10 in - ()
Sea Level Pressure  
Sea Level Pressure 29.56 in    
Wind  
Wind Speed 13 mph ()    
Max Wind Speed 31 mph    
Max Gust Speed 47 mph    
Visibility 6.5 miles    
Events Rain , Thunderstorm    
Averages and records for this station are not official NWS values.
T = Trace of Precipitation, MM = Missing Value Source: Averaged Metar Reports

Daily Weather History Graph

Daily Weather History Graph

Search for Another Location

Airport or City:

Trip Planner

Search our weather history database for the weather conditions in past years. The results will help you decide how hot, cold, wet, or windy it might be!

Date:

Astronomy

Jan. 23, 2013 Rise Set
Actual Time 7:56 AM CET 5:30 PM CET
Civil Twilight 7:25 AM CET 6:01 PM CET
Nautical Twilight 6:50 AM CET 6:36 PM CET
Astronomical Twilight 6:16 AM CET 7:10 PM CET
Moon 2:25 PM CET (1/23) 4:56 AM CET (1/23)
Length of Visible Light 10h 36m
Length of Day
9h 33m
Waxing Gibbous, 87% of the Moon is Illuminated
Jan 23
Waxing Gibbous
Jan 27
Full
Feb 3
Last Quarter
Feb 10
New
Feb 17
First Quarter

Hourly Weather History & Observations

Time (CET) Temp. Windchill Dew Point Humidity Pressure Visibility Wind Dir Wind Speed Gust Speed Precip Events Conditions
12:00 AM 42.8 °F 37.0 °F 28.4 °F 57% 29.65 in 6.2 mi NNW 10.4 mph - N/A   Scattered Clouds
12:30 AM 42.8 °F 37.0 °F 26.6 °F 53% 29.65 in 6.2 mi NNW 10.4 mph - N/A   Scattered Clouds
1:00 AM 43 °F - 27 °F 40% 29.65 in 25 mi NNW 11.5 mph - -   Scattered Clouds
1:00 AM 42.8 °F 37.0 °F 26.6 °F 53% 29.65 in 6.2 mi NNW 10.4 mph - N/A   Scattered Clouds
1:30 AM 42.8 °F 38.0 °F 26.6 °F 53% 29.62 in 6.2 mi North 8.1 mph - N/A   Scattered Clouds
2:00 AM 44.6 °F 39.7 °F 26.6 °F 49% 29.62 in 6.2 mi NNW 9.2 mph - N/A   Scattered Clouds
2:30 AM 44.6 °F 40.2 °F 28.4 °F 53% 29.62 in 6.2 mi North 8.1 mph - N/A   Mostly Cloudy
3:00 AM 42.8 °F 36.6 °F 32.0 °F 66% 29.62 in 6.2 mi NNE 11.5 mph - N/A   Mostly Cloudy
3:30 AM 42.8 °F 36.6 °F 32.0 °F 66% 29.62 in 6.2 mi NNE 11.5 mph - N/A   Mostly Cloudy
4:00 AM 42.8 °F 36.6 °F 33.8 °F 70% 29.59 in 6.2 mi NNW 11.5 mph - N/A   Overcast
4:30 AM 42.8 °F 36.6 °F 32.0 °F 66% 29.59 in 6.2 mi NNW 11.5 mph - N/A Rain Light Rain
5:00 AM 44.6 °F 38.8 °F 35.6 °F 71% 29.59 in 6.2 mi NNE 11.5 mph - N/A Rain Light Rain
5:30 AM 44.6 °F 38.8 °F 37.4 °F 76% 29.59 in 5.0 mi NNE 11.5 mph - N/A Rain Light Rain
6:00 AM 41.0 °F 34.3 °F 35.6 °F 81% 29.56 in 5.0 mi WNW 11.5 mph - N/A Rain Light Rain
6:30 AM 42.8 °F 40.1 °F 37.4 °F 81% 29.56 in 5.0 mi NNW 4.6 mph - N/A Rain Light Rain
7:00 AM 46 °F - 38 °F 66% 29.56 in 19 mi NNE 15.0 mph - - Rain Light Rain
7:00 AM 46.4 °F 40.1 °F 37.4 °F 71% 29.53 in 6.2 mi NNE 15.0 mph - N/A   Mostly Cloudy
7:30 AM 50.0 °F - 39.2 °F 66% 29.53 in 6.2 mi NE 20.7 mph 35.7 mph N/A   Mostly Cloudy
8:00 AM 50.0 °F - 35.6 °F 58% 29.50 in 6.2 mi NE 19.6 mph - N/A   Mostly Cloudy
8:30 AM 51.8 °F - 33.8 °F 50% 29.50 in 6.2 mi NE 18.4 mph - N/A   Mostly Cloudy
9:00 AM 51.8 °F - 35.6 °F 54% 29.50 in 6.2 mi ENE 29.9 mph 47.2 mph N/A Rain , Thunderstorm Light Thunderstorms and Rain
9:30 AM 50.0 °F - 39.2 °F 66% 29.50 in 2.5 mi East 31.1 mph 47.2 mph N/A Rain , Thunderstorm Light Thunderstorms and Rain
10:00 AM 48.2 °F - 42.8 °F 82% 29.56 in 2.2 mi East 26.5 mph 40.3 mph N/A Rain , Thunderstorm Thunderstorms and Rain
10:30 AM 48.2 °F - 41.0 °F 76% 29.56 in 5.0 mi East 29.9 mph - N/A Rain Rain
11:00 AM 46.4 °F 39.0 °F 39.2 °F 76% 29.56 in 5.0 mi NE 19.6 mph 33.4 mph N/A Rain Rain
11:30 AM 44.6 °F 38.8 °F 39.2 °F 81% 29.56 in 5.0 mi North 11.5 mph - N/A Rain Rain
12:00 PM 46.4 °F 39.8 °F 37.4 °F 71% 29.56 in 6.2 mi NNE 16.1 mph - N/A Rain Light Rain
12:30 PM 46.4 °F 39.0 °F 39.2 °F 76% 29.53 in 6.2 mi NNE 19.6 mph - N/A Rain Light Rain
1:00 PM 47 °F - 39 °F 65% 29.55 in 12 mi NNE 20.7 mph - - Rain Light Rain
1:00 PM 46.4 °F 39.2 °F 39.2 °F 76% 29.53 in 6.2 mi NNE 18.4 mph - N/A   Overcast
1:30 PM 46.4 °F 39.0 °F 37.4 °F 71% 29.53 in 6.2 mi NNE 19.6 mph - N/A   Overcast
2:00 PM 46.4 °F 39.8 °F 37.4 °F 71% 29.53 in 6.2 mi NNE 16.1 mph - N/A   Overcast
2:30 PM 46.4 °F 40.1 °F 37.4 °F 71% 29.53 in 6.2 mi NNE 15.0 mph - N/A   Overcast
3:00 PM 48.2 °F - 37.4 °F 66% 29.53 in 6.2 mi NNE 17.3 mph - N/A   Overcast
3:30 PM 48.2 °F - 35.6 °F 62% 29.53 in 6.2 mi NNE 19.6 mph - N/A   Overcast
4:00 PM 46.4 °F 38.1 °F 35.6 °F 66% 29.56 in 6.2 mi NNE 24.2 mph - N/A   Scattered Clouds
4:30 PM 46.4 °F 38.5 °F 35.6 °F 66% 29.53 in 6.2 mi NNE 21.9 mph - N/A   Scattered Clouds
5:00 PM 46.4 °F 38.7 °F 33.8 °F 62% 29.53 in 6.2 mi NNE 20.7 mph - N/A   Scattered Clouds
5:30 PM 48.2 °F - 33.8 °F 58% 29.53 in 6.2 mi North 18.4 mph - N/A   Scattered Clouds
6:00 PM 46.4 °F 39.5 °F 33.8 °F 62% 29.53 in 6.2 mi NNE 17.3 mph - N/A   Scattered Clouds
6:30 PM 46.4 °F 40.1 °F 33.8 °F 62% 29.53 in 6.2 mi NNE 15.0 mph - N/A   Partly Cloudy
7:00 PM 47 °F - 32 °F 44% 29.55 in 19 mi NNE 15.0 mph - -   Partly Cloudy
7:00 PM 46.4 °F 40.1 °F 32.0 °F 57% 29.53 in 6.2 mi NNE 15.0 mph - N/A   Partly Cloudy
7:30 PM 48.2 °F - 32.0 °F 54% 29.53 in 6.2 mi NE 9.2 mph - N/A   Scattered Clouds
8:00 PM 44.6 °F 39.2 °F 32.0 °F 61% 29.53 in 6.2 mi North 10.4 mph - N/A   Mostly Cloudy
8:30 PM 44.6 °F 40.2 °F 32.0 °F 61% 29.53 in 6.2 mi NNW 8.1 mph - N/A   Mostly Cloudy
9:00 PM 44.6 °F 38.8 °F 32.0 °F 61% 29.53 in 6.2 mi NNW 11.5 mph - N/A   Mostly Cloudy
9:30 PM 44.6 °F 39.2 °F 33.8 °F 66% 29.56 in 6.2 mi NNW 10.4 mph - N/A   Scattered Clouds
10:00 PM 44.6 °F 39.7 °F 32.0 °F 61% 29.56 in 6.2 mi NNW 9.2 mph - N/A   Scattered Clouds
10:30 PM 42.8 °F 41.1 °F 32.0 °F 66% 29.56 in 6.2 mi Variable 3.5 mph - N/A   Scattered Clouds
11:00 PM 42.8 °F 38.0 °F 32.0 °F 66% 29.56 in 6.2 mi NNW 8.1 mph - N/A   Mostly Cloudy
11:30 PM 42.8 °F 37.5 °F 32.0 °F 66% 29.59 in 6.2 mi NNW 9.2 mph - N/A   Mostly Cloudy